Starlink 30228

operational
NORAD ID: 57502 Int'l Des: 2023-113 Owner: SPXS Country: US Constellation: starlink
LEOCIRCULAR

About Starlink 30228

Description loading...

Live Position

Loading 3D Globe...

Upcoming Passes

Altitude History

Altitude vs Time

uPlot chart will show altitude changes over time

Two-Line Element Set

1 57502U 23113H 25353.91668981 .00625944 00000-0 41844-2 0 9998
2 57502 42.9796 27.0084 0027040 78.3794 348.5667 15.72287220 5864
Epoch: Dec 19, 2025 • Age: 8 hours

Current Status

Altitude 344.1 km
Velocity 7.71 km/s
Sub-Earth Point 20.37°N, 3.03°E
Launch Date Aug 7, 2023
Age 2.3 years
Type internet

Technical Details

Classification Payload
Mass 730.00 kg
Dry Mass 700.00 kg
Total Mass 730.00 kg
Length 0.30 m
Diameter 4.10 m
Span 29.00 m
Shape Box + pan
Manufacturer SPXS
Bus Type Starlink V2M
Phase Status In Orbit
Owner/State SPXS/US

Large Constellations

Loading constellations...